Location: La Pernelle
(49.6188°N, 1.2999°W)
Time: 17:26:36
(UTC+00:00)

SL-16 R/B - Pass Details

Date: 31 October 2021
Orbit: 842 x 846 km, 71.0° (Epoch: 28 November)

Event Time Altitude Azimuth Distance (km) Brightness Sun altitude
Rises 17:55:29 0° 229° (SW) 3,394 6.4 -12.0°
Reaches altitude 10° 17:58:03 10° 236° (WSW) 2,463 5.7 -12.4°
Maximum altitude 18:03:25 43° 308° (NW) 1,171 3.3 -13.2°
Drops below altitude 10° 18:08:50 10° 20° (NNE) 2,479 4.4 -14.1°
Sets 18:11:26 0° 27° (NNE) 3,418 5.0 -14.5°
Enters shadow 18:11:30 - 27° (NNE) 3,444 5.1 -14.5°
